Location: Asheville, NC
(35.6000°N, 82.5500°W)
Time: 00:59:55
(UTC-04:00)

Iridium 28 - Pass Details

Date: 05 January 2018
Orbit: 771 x 775 km, 86.4° (Epoch: 23 June)

Event Time Altitude Azimuth Distance (km) Brightness Sun altitude
Rises 06:26:19 0° 162° (SSE) 3,230 9.3 -14.7°
Reaches altitude 10° 06:28:45 10° 156° (SSE) 2,307 8.6 -14.2°
Maximum altitude 06:33:34 41° 86° (E) 1,102 6.9 -13.3°
Drops below altitude 10° 06:38:25 10° 17° (NNE) 2,324 8.0 -12.4°
Sets 06:40:53 0° 11° (N) 3,255 8.7 -11.9°
